Location: Peebles
(55.6412°N, 3.1714°W)
Time: 12:12:28
(UTC+00:00)

RS-15 - Pass Details

Date: 01 December 2023
Orbit: 1893 x 2151 km, 64.8° (Epoch: 02 March)

Event Time Altitude Azimuth Distance (km) Brightness Sun altitude
Rises 21:30:51 0° 206° (SSW) 5,651 10.4 -46.2°
Enters shadow 21:33:08 - 205° (SSW) 4,985 10.1 -46.5°
Exits shadow 21:58:42 - 46° (NE) 4,742 10.0 -49.2°
Sets 22:01:04 0° 45° (NE) 5,444 10.4 -49.5°
